Regional Weather Roundup
Issued by NWS Northern Indiana

Home | Current Version | Previous Version | Graphics & Text | Print | Product List | Glossary On
Versions: 1 2 3 4 5 6 7 8 9 10 11 12 13 14 15 16 17 18 19 20 21 22 23 24 25 26 27 28 29 30 31 32 33 34 35 36 37 38 39 40 41 42 43 44 45 46 47 48 49 50
000
ASUS43 KIWX 231801
RWRIWX

KIWX WEATHER ROUNDUP
NATIONAL WEATHER SERVICE NORTHERN INDIANA
200 PM EDT MON OCT 23 2017

NOTE: "FAIR" INDICATES FEW OR NO CLOUDS BELOW 12,000 FEET WITH NO
SIGNIFICANT WEATHER AND/OR OBSTRUCTIONS TO VISIBILITY.

* THESE STATIONS ARE NOT UNDER NWS QUALITY CONTROL. THEY ALSO MAY NOT
  REPORT WEATHER SUCH AS PRECIPITATION OR FOG.

INZ001>027-231900-
NORTHERN INDIANA

CITY           SKY/WX    TMP DP  RH WIND       PRES   REMARKS
VALPARAISO     HVY RAIN  55  54  94 N14G23    29.70F FOG
SOUTH BEND     RAIN      52  50  93 N15       29.66F
6HR MIN TEMP:  52; 6HR MAX TEMP:  55; 6HR PCP:  0.52;

ELKHART*       LGT RAIN  55  54  94 N6        29.64F FOG
GOSHEN         RAIN      61  57  87 E6        29.62F FOG
6HR MIN TEMP:  60; 6HR MAX TEMP:  61; 6HR PCP:  0.23;

MONTICELLO*    HVY RAIN  55  54  95 NW20G25   29.65F
6HR MIN TEMP:  55; 6HR MAX TEMP:  60; 6HR PCP:  0.50;

FORT WAYNE     LGT RAIN  63  59  87 SE12      29.62F
6HR MIN TEMP:  60; 6HR MAX TEMP:  64; 6HR PCP:  0.07;

PERU/GRISSOM   RAIN      63  63 100 SW9       29.59F FOG
6HR MIN TEMP:  60; 6HR MAX TEMP:  62; 6HR PCP:  0.18;


$$
INZ028>050-231900-
CENTRAL INDIANA

CITY           SKY/WX    TMP DP  RH WIND       PRES   REMARKS
LAFAYETTE      LGT RAIN  56  55  97 NW14G21   29.68F FOG
6HR MIN TEMP:  55; 6HR MAX TEMP:  62; 6HR PCP:  0.50;

KOKOMO*        LGT RAIN  62  61  96 S17       29.61F
6HR MIN TEMP:  60; 6HR MAX TEMP:  62; 6HR PCP:  0.15;

MUNCIE*        CLOUDY    66  59  78 SW8G18    29.64F
6HR MIN TEMP:  63; 6HR MAX TEMP:  67; 6HR PCP:  0.03;

INDIANAPOLIS   CLOUDY    60  56  86 SW16G25   29.66F
6HR MIN TEMP:  60; 6HR MAX TEMP:  63; 6HR PCP:  0.08;


$$
MIZ043>046-050>051-056>058-064>065-071>073-077>080-231900-
SOUTHWEST LOWER MICHIGAN

CITY           SKY/WX    TMP DP  RH WIND       PRES   REMARKS
BATTLE CREEK   RAIN      59  58  96 NE6       29.67F FOG
6HR MIN TEMP:  59; 6HR MAX TEMP:  60; 6HR PCP:  0.33;

BENTON HARBOR  HVY RAIN  54  52  93 CALM      29.69F FOG
6HR MIN TEMP:  54; 6HR MAX TEMP:  55; 6HR PCP:  1.04;

COLDWATER*     RAIN      61  59  93 SE7       29.65F
6HR MIN TEMP:  59; 6HR MAX TEMP:  63;

HILLSDALE*     LGT RAIN  59  57  94 SE8       29.66F
HOLLAND        HVY RAIN  53  51  93 N7        29.71F FOG
6HR MIN TEMP:  52; 6HR MAX TEMP:  53; 6HR PCP:  0.73;

GRAND RAPIDS   RAIN      54  54 100 N7        29.69F FOG
6HR MIN TEMP:  54; 6HR MAX TEMP:  55; 6HR PCP:  0.66;

KALAMAZOO      RAIN      58  55  90 N7        29.66F FOG
6HR MIN TEMP:  57; 6HR MAX TEMP:  60; 6HR PCP:  0.42;

STURGIS*       RAIN      59  58  97 NE5       29.63F
6HR MIN TEMP:  58; 6HR MAX TEMP:  60; 6HR PCP:  0.37;

THREE RIVERS*  RAIN      60  59  98 NE3       29.65F
6HR MIN TEMP:  59; 6HR MAX TEMP:  61;


$$
OHZ001>008-015>018-024>025-231900-
NORTHWEST OHIO

CITY           SKY/WX    TMP DP  RH WIND       PRES   REMARKS
DEFIANCE       LGT RAIN  64  58  80 SE7       29.65F
6HR MIN TEMP:  61; 6HR MAX TEMP:  64; 6HR PCP:  0.07;

FINDLAY        LGT RAIN  64  60  87 SE15      29.67F
6HR MIN TEMP:  63; 6HR MAX TEMP:  67; 6HR PCP:  0.15;

TOLEDO EXPRESS LGT RAIN  63  63 100 SE7       29.68F FOG
6HR MIN TEMP:  62; 6HR MAX TEMP:  67; 6HR PCP:  0.22;

TOLEDO METCALF LGT RAIN  64  61  90 SE13      29.70F FOG
6HR MIN TEMP:  63; 6HR MAX TEMP:  68; 6HR PCP:  0.14;

LIMA           LGT RAIN  63  62  97 SE17G24   29.66F FOG
6HR MIN TEMP:  63; 6HR MAX TEMP:  66; 6HR PCP:  0.06;


$$
AND FOR LAKE MICHIGAN COASTAL AND OPEN LAKE BUOY OBSERVATIONS

STATION/POSITION TEMP    WIND        PRES    VSBY  WAVE
                 AIR SEA DIR/SP/G                  HT/PER
                 (F)     (DEG/KT/KT) (MB)    (MI)  (FT/S)
CALUMET HARBOR    52     320/  8/ 15 1007.2
MICHIGAN CITY     54     340/ 22/ 24   N/A
BURNS HARBOR      54     340/ 20/ 24 1007.1F
SAINT JOSEPH      55      30/ 10/ 20 1006.8
SOUTH LAKE BUOY   54 59   20/ 14/ 16 1008.4          3/ 4
4 MI NW BRIDGMAN  55 58   30/ 17/ 23 1006.0F         6/ 6
MICHIGAN CITY     54 57  350/ 17/ 23   N/A           7/ 6

$$
&&




USA.gov is the U.S. government's official web portal to all federal, state and local government web resources and services.